CW0028 Weather Reports


Display with metric or nautical units.
time (UTC)temp
F
wind
direction
speed
MPH
gust
MPH
rain 1hr
in
rain 24hr
in
rain mn
in
humidity
%
barometer
mb
20260510045557 52 138 1.0 4.0 0.00 0.17 0.00 75 1011.9
20260510045056 52 138 0.0 3.0 0.00 0.17 0.00 75 1011.7
20260510044612 52 138 0.0 2.0 0.00 0.17 0.00 75 1011.8
20260510044003 52 138 0.0 2.0 0.00 0.17 0.00 75 1011.6
20260510043505 52 138 0.0 2.0 0.00 0.17 0.00 75 1011.7
20260510043011 52 138 0.0 2.0 0.01 0.17 0.00 75 1011.8
20260510042554 52 138 0.0 2.0 0.01 0.17 0.00 75 1011.8
20260510042056 52 138 0.0 0.0 0.01 0.17 0.00 75 1011.7
20260510041600 52 138 0.0 0.0 0.01 0.17 0.00 75 1011.8
20260510041006 52 138 0.0 0.0 0.01 0.17 0.00 75 1011.7
20260510040512 52 138 0.0 0.0 0.01 0.17 0.00 75 1011.5
20260510040054 52 138 0.0 0.0 0.01 0.17 0.00 74 1011.5
20260510035556 52 138 0.0 2.0 0.01 0.17 0.17 74 1011.4
20260510035022 52 138 0.0 3.0 0.01 0.17 0.17 74 1011.4
20260510034615 52 138 0.0 3.0 0.01 0.17 0.17 74 1011.3
20260510034059 52 138 0.0 3.0 0.01 0.17 0.17 74 1011.2
20260510033501 52 138 0.0 4.0 0.01 0.17 0.17 74 1011.2
20260510033007 52 138 2.0 4.0 0.00 0.16 0.16 74 1011.2
20260510032508 52 67 0.0 3.0 0.00 0.16 0.16 74 1011.2
20260510032055 52 139 1.0 3.0 0.00 0.16 0.16 74 1011.2
20260510031523 53 80 1.0 2.0 0.00 0.16 0.16 73 1011.3
20260510031056 52 74 0.0 3.0 0.00 0.16 0.16 73 1011.3
20260510030519 53 71 0.0 3.0 0.00 0.16 0.16 73 1011.3
20260510030058 53 75 0.0 3.0 0.00 0.16 0.16 73 1011.4
20260510025559 53 124 1.0 3.0 0.00 0.16 0.16 73 1011.4
20260510025001 53 110 0.0 2.0 0.00 0.16 0.16 73 1011.3
20260510024506 53 110 1.0 2.0 0.00 0.16 0.16 73 1011.2
20260510024008 53 110 0.0 1.0 0.00 0.16 0.16 73 1011.3
20260510023553 53 110 0.0 3.0 0.00 0.16 0.16 73 1011.3
20260510023056 53 110 0.0 3.0 0.00 0.16 0.16 73 1011.3
20260510022603 53 103 1.0 4.0 0.00 0.16 0.16 73 1011.3
20260510022002 53 76 1.0 4.0 0.00 0.16 0.16 72 1011.3
20260510021511 53 229 0.0 3.0 0.00 0.16 0.16 72 1011.4
20260510021054 53 119 0.0 2.0 0.00 0.16 0.16 72 1011.4
20260510020558 53 119 1.0 3.0 0.00 0.16 0.16 72 1011.4
20260510020101 53 101 0.0 4.0 0.00 0.16 0.16 72 1011.3
20260510015504 53 112 2.0 4.0 0.00 0.16 0.16 72 1011.3
20260510015007 53 90 2.0 5.0 0.00 0.16 0.16 72 1011.3
20260510014512 53 128 2.0 7.0 0.00 0.16 0.16 71 1011.3
20260510014054 53 96 1.0 6.0 0.00 0.16 0.16 71 1011.1
20260510013600 53 96 2.0 4.0 0.00 0.16 0.16 71 1011.2
20260510013130 53 97 1.0 4.0 0.00 0.16 0.16 71 1011.3
20260510012504 53 94 1.0 6.0 0.00 0.16 0.16 71 1011.2
20260510012009 53 135 2.0 6.0 0.00 0.16 0.16 71 1011.1
20260510011555 53 111 2.0 7.0 0.00 0.16 0.16 71 1011.2
20260510011056 53 114 1.0 5.0 0.00 0.16 0.16 70 1011.1
20260510010559 53 113 2.0 5.0 0.00 0.16 0.16 70 1011.1
20260510010004 53 64 0.0 2.0 0.00 0.16 0.16 70 1011.0
20260510005506 54 5 0.0 0.0 0.00 0.16 0.16 70 1011.0
20260510005013 54 5 0.0 0.0 0.00 0.16 0.16 70 1011.1
20260510004553 54 5 0.0 0.0 0.00 0.16 0.16 70 1011.1
20260510004055 54 5 0.0 0.0 0.00 0.16 0.16 70 1011.0
20260510003502 54 5 0.0 0.0 0.00 0.16 0.16 70 1011.0
20260510003005 55 5 0.0 0.0 0.00 0.16 0.16 70 1010.9
20260510002553 55 5 0.0 0.0 0.00 0.16 0.16 70 1010.9
20260510002056 55 5 0.0 0.0 0.00 0.16 0.16 70 1010.9
20260510001520 55 5 0.0 0.0 0.00 0.16 0.16 70 1010.7
20260510001056 55 5 0.0 0.0 0.00 0.16 0.16 70 1010.7
20260510000558 55 5 0.0 1.0 0.00 0.16 0.16 70 1010.7
20260510000002 56 5 0.0 1.0 0.01 0.16 0.16 71 1010.5
20260509235504 56 5 0.0 2.0 0.02 0.16 0.16 71 1010.5
20260509235009 56 5 0.0 2.0 0.02 0.16 0.16 71 1010.5
20260509234551 56 5 0.0 2.0 0.02 0.16 0.16 71 1010.6
20260509234053 56 5 0.0 2.0 0.02 0.16 0.16 70 1010.7
20260509233519 56 5 1.0 2.0 0.03 0.16 0.16 70 1010.7
20260509233059 56 81 1.0 3.0 0.05 0.16 0.16 70 1010.4
20260509232503 56 82 1.0 2.0 0.08 0.16 0.16 70 1010.7
20260509232005 56 300 0.0 3.0 0.08 0.16 0.16 70 1011.0
20260509231510 56 207 0.0 4.0 0.08 0.16 0.16 70 1011.1
20260509231051 56 96 2.0 4.0 0.08 0.16 0.16 69 1010.8
20260509230554 56 126 0.0 4.0 0.08 0.16 0.16 69 1011.0
20260509230109 56 126 0.0 4.0 0.07 0.15 0.15 69 1011.2
20260509225502 56 234 2.0 7.0 0.06 0.14 0.14 69 1011.3
20260509225007 56 82 2.0 7.0 0.06 0.14 0.14 69 1010.9
20260509224512 56 123 1.0 4.0 0.06 0.14 0.14 69 1011.0
20260509224054 56 98 2.0 4.0 0.06 0.14 0.14 69 1011.0
20260509223516 56 331 1.0 7.0 0.05 0.13 0.13 69 1011.3
20260509223105 56 33 3.0 7.0 0.02 0.10 0.10 69 1011.9
20260509222500 56 166 1.0 3.0 0.00 0.08 0.08 69 1012.0
20260509222019 56 166 2.0 3.0 0.00 0.08 0.08 68 1011.4
20260509221609 56 92 1.0 3.0 0.00 0.08 0.08 68 1011.2
20260509221100 56 88 1.0 3.0 0.00 0.08 0.08 68 1011.1
20260509220502 56 258 0.0 4.0 0.00 0.08 0.08 68 1011.5
20260509220007 56 255 1.0 4.0 0.00 0.08 0.08 68 1011.5
20260509215515 56 168 2.0 6.0 0.00 0.08 0.08 68 1011.3
20260509215058 56 116 1.0 6.0 0.00 0.08 0.08 68 1011.3
20260509214603 56 137 1.0 3.0 0.00 0.08 0.08 68 1011.3
20260509214020 56 173 0.0 5.0 0.00 0.08 0.08 68 1011.4
20260509213556 56 82 1.0 5.0 0.00 0.08 0.08 68 1011.4
20260509213002 56 82 1.0 3.0 0.00 0.08 0.08 68 1011.6
20260509212056 56 186 3.0 6.0 0.00 0.08 0.08 68 1011.7
20260509211520 56 137 1.0 8.0 0.00 0.08 0.08 68 1011.6
20260509211056 56 125 3.0 8.0 0.00 0.08 0.08 68 1011.6
20260509210558 56 222 1.0 8.0 0.00 0.08 0.08 68 1011.7
20260509210005 56 287 2.0 8.0 0.00 0.08 0.08 68 1011.7
20260509205505 56 224 4.0 7.0 0.00 0.08 0.08 68 1011.7
20260509205009 56 192 1.0 8.0 0.00 0.08 0.08 68 1011.7
20260509204551 56 163 2.0 8.0 0.00 0.08 0.08 68 1011.7
20260509203502 56 136 1.0 12.0 0.00 0.08 0.08 67 1011.5
20260509203022 56 232 5.0 11.0 0.00 0.08 0.08 67 1011.6
20260509202509 56 183 6.0 11.0 0.00 0.08 0.08 67 1011.7
20260509202054 56 191 3.0 11.0 0.00 0.08 0.08 67 1011.5
20260509201556 56 202 5.0 14.0 0.00 0.08 0.08 67 1011.4
20260509201001 57 87 3.0 9.0 0.01 0.08 0.08 68 1011.6
20260509200508 57 94 2.0 10.0 0.01 0.08 0.08 68 1011.8
20260509200008 57 241 4.0 10.0 0.01 0.08 0.08 67 1011.5
20260509195513 57 88 2.0 8.0 0.02 0.08 0.08 67 1011.7
20260509195055 57 164 2.0 7.0 0.02 0.08 0.08 67 1011.7
20260509194519 57 107 3.0 7.0 0.03 0.08 0.08 67 1011.9
20260509194057 57 107 2.0 8.0 0.04 0.08 0.08 67 1011.8
20260509193600 57 83 3.0 11.0 0.04 0.08 0.08 67 1011.8
20260509193002 57 136 3.0 8.0 0.04 0.08 0.08 66 1011.8
20260509192507 57 119 2.0 7.0 0.04 0.08 0.08 66 1011.6
20260509192010 57 87 1.0 7.0 0.05 0.08 0.08 66 1011.5
20260509191555 57 122 2.0 5.0 0.05 0.08 0.08 66 1011.7
20260509191057 57 163 1.0 7.0 0.05 0.07 0.07 66 1011.8
20260509190517 57 183 1.0 5.0 0.06 0.07 0.07 65 1011.9
20260509190055 57 142 1.0 9.0 0.06 0.07 0.07 65 1012.0
20260509185557 57 211 3.0 9.0 0.05 0.06 0.06 64 1012.0
20260509185001 57 118 1.0 9.0 0.04 0.05 0.05 64 1012.0
20260509184510 57 171 4.0 9.0 0.05 0.05 0.05 64 1012.0
20260509184051 57 76 2.0 8.0 0.04 0.04 0.04 64 1011.8
20260509183556 57 101 2.0 8.0 0.04 0.04 0.04 63 1011.8
20260509183017 57 102 3.0 7.0 0.04 0.04 0.04 63 1011.7
20260509182553 57 207 2.0 6.0 0.04 0.04 0.04 63 1011.6
20260509182059 58 148 1.0 9.0 0.03 0.03 0.03 62 1011.5
20260509181501 58 137 4.0 11.0 0.03 0.03 0.03 62 1011.7
20260509181004 58 194 1.0 8.0 0.02 0.02 0.02 61 1011.9
20260509180514 58 121 4.0 8.0 0.01 0.01 0.01 61 1011.7
20260509180051 59 107 3.0 8.0 0.01 0.01 0.01 60 1011.8
20260509175558 59 95 2.0 8.0 0.01 0.01 0.01 60 1011.8
20260509175004 59 92 2.0 7.0 0.01 0.01 0.01 59 1011.5
20260509174518 59 163 3.0 12.0 0.00 0.00 0.00 58 1011.5
20260509174012 60 90 4.0 12.0 0.00 0.00 0.00 57 1011.8
20260509173553 60 49 3.0 8.0 0.00 0.00 0.00 56 1011.8
20260509173101 61 113 2.0 7.0 0.00 0.00 0.00 55 1011.7
20260509172521 61 118 2.0 8.0 0.00 0.00 0.00 54 1011.3
20260509172053 62 125 2.0 8.0 0.00 0.00 0.00 53 1011.5
20260509171559 62 245 1.0 8.0 0.00 0.00 0.00 52 1011.5
20260509171019 62 154 2.0 8.0 0.00 0.00 0.00 52 1011.6
20260509170555 63 126 1.0 8.0 0.00 0.00 0.00 52 1011.3
20260509170100 63 207 4.0 8.0 0.00 0.00 0.00 51 1011.4
20260509165505 63 173 1.0 9.0 0.00 0.00 0.00 51 1011.4
20260509165010 63 250 2.0 9.0 0.00 0.00 0.00 51 1011.5
20260509164556 63 128 2.0 9.0 0.00 0.00 0.00 51 1011.4
20260509164056 63 168 3.0 8.0 0.00 0.00 0.00 52 1011.5
20260509163600 62 150 3.0 8.0 0.00 0.00 0.00 52 1011.5
20260509163006 62 235 3.0 7.0 0.00 0.00 0.00 51 1011.8
20260509162511 63 121 1.0 6.0 0.00 0.00 0.00 51 1011.9
20260509162012 63 231 3.0 8.0 0.00 0.00 0.00 51 1012.1
20260509161557 63 118 3.0 8.0 0.00 0.00 0.00 50 1012.2
20260509161056 63 90 2.0 9.0 0.00 0.00 0.00 50 1012.3
20260509160502 63 211 5.0 9.0 0.00 0.00 0.00 49 1012.3
20260509160005 63 150 4.0 6.0 0.00 0.00 0.00 50 1012.4
20260509155551 63 17 2.0 9.0 0.00 0.00 0.00 49 1012.5
20260509155054 63 107 5.0 9.0 0.00 0.00 0.00 49 1012.4
20260509154603 63 219 3.0 10.0 0.00 0.00 0.00 49 1012.5
20260509154002 63 114 6.0 10.0 0.00 0.00 0.00 48 1012.5
20260509153505 63 128 1.0 9.0 0.00 0.00 0.00 48 1012.4
20260509153010 62 115 3.0 10.0 0.00 0.00 0.00 49 1012.5
20260509152551 62 103 3.0 10.0 0.00 0.00 0.00 49 1012.4
20260509152057 63 105 5.0 11.0 0.00 0.00 0.00 49 1012.5
20260509151600 63 130 7.0 11.0 0.00 0.00 0.00 47 1012.5
20260509151008 63 94 5.0 9.0 0.00 0.00 0.00 47 1012.4
20260509150509 63 123 2.0 8.0 0.00 0.00 0.00 47 1012.4
20260509150057 63 232 2.0 10.0 0.00 0.00 0.00 48 1012.4
20260509145558 63 138 4.0 10.0 0.00 0.00 0.00 47 1012.4
20260509145059 62 96 2.0 10.0 0.00 0.00 0.00 48 1012.4
20260509144504 62 217 2.0 10.0 0.00 0.00 0.00 48 1012.6
20260509144008 62 240 5.0 10.0 0.00 0.00 0.00 48 1012.6
20260509143511 62 242 5.0 9.0 0.00 0.00 0.00 47 1012.5
20260509143100 62 103 2.0 10.0 0.00 0.00 0.00 49 1012.5
20260509142558 62 187 2.0 10.0 0.00 0.00 0.00 47 1012.5
20260509142001 62 182 2.0 10.0 0.00 0.00 0.00 50 1012.4
20260509141504 61 225 3.0 10.0 0.00 0.00 0.00 50 1012.3
20260509141005 61 202 4.0 10.0 0.00 0.00 0.00 49 1012.5
20260509140558 61 227 4.0 10.0 0.00 0.00 0.00 49 1012.4
20260509140105 60 213 4.0 7.0 0.00 0.00 0.00 50 1012.7
20260509135559 60 176 1.0 10.0 0.00 0.00 0.00 51 1012.7
20260509135004 60 148 4.0 10.0 0.00 0.00 0.00 50 1012.6
20260509134508 60 183 4.0 8.0 0.00 0.00 0.00 51 1012.5
20260509134009 60 149 2.0 8.0 0.00 0.00 0.00 52 1012.5
20260509133557 59 139 3.0 8.0 0.00 0.00 0.00 52 1012.6
20260509133017 59 188 2.0 9.0 0.00 0.00 0.00 54 1012.7
20260509132554 59 182 3.0 9.0 0.00 0.00 0.00 54 1012.5
20260509132058 58 130 2.0 8.0 0.00 0.00 0.00 58 1012.7
20260509131501 56 104 2.0 7.0 0.00 0.00 0.00 62 1012.9
20260509131010 55 213 1.0 5.0 0.00 0.00 0.00 63 1012.8
20260509130552 55 92 1.0 5.0 0.00 0.00 0.00 64 1012.8
20260509130057 55 194 1.0 5.0 0.00 0.00 0.00 64 1012.9
20260509125501 54 42 1.0 6.0 0.00 0.00 0.00 65 1012.9
20260509125003 54 266 2.0 7.0 0.00 0.00 0.00 66 1013.1
20260509124506 54 244 2.0 7.0 0.00 0.00 0.00 66 1013.2
20260509124008 54 90 1.0 4.0 0.00 0.00 0.00 67 1012.9
20260509123552 53 102 2.0 4.0 0.00 0.00 0.00 67 1012.9
20260509123119 53 106 1.0 3.0 0.00 0.00 0.00 67 1012.9
20260509122600 53 113 0.0 3.0 0.00 0.00 0.00 67 1013.1
20260509122002 52 154 0.0 2.0 0.00 0.00 0.00 67 1013.1
20260509121514 52 154 0.0 8.0 0.00 0.00 0.00 67 1013.2
20260509121053 52 138 0.0 8.0 0.00 0.00 0.00 67 1013.2
20260509120557 52 121 0.0 3.0 0.00 0.00 0.00 67 1013.3
20260509120001 52 159 0.0 3.0 0.00 0.00 0.00 67 1013.4
20260509115502 52 113 1.0 3.0 0.00 0.00 0.00 67 1013.3
20260509115010 52 138 1.0 4.0 0.00 0.00 0.00 67 1013.2
20260509114551 52 98 1.0 4.0 0.00 0.00 0.00 67 1013.2
20260509114057 51 139 0.0 3.0 0.00 0.00 0.00 67 1013.2
20260509113519 51 101 0.0 2.0 0.00 0.00 0.00 67 1013.3
20260509113055 51 101 0.0 0.0 0.00 0.00 0.00 67 1013.3
20260509112557 51 101 0.0 0.0 0.00 0.00 0.00 67 1013.2
20260509112006 51 101 0.0 0.0 0.00 0.00 0.00 67 1013.4
20260509111509 51 101 0.0 0.0 0.00 0.00 0.00 67 1013.1
20260509111051 51 101 0.0 0.0 0.00 0.00 0.00 67 1013.0
20260509110556 51 101 0.0 0.0 0.00 0.00 0.00 67 1013.1
20260509110058 51 101 0.0 0.0 0.00 0.00 0.00 67 1013.1
20260509105503 51 101 0.0 0.0 0.00 0.00 0.00 67 1013.1
20260509105007 51 101 0.0 1.0 0.00 0.00 0.00 67 1013.0
20260509104510 51 101 0.0 2.0 0.00 0.00 0.00 67 1013.1
20260509104053 51 101 0.0 2.0 0.00 0.00 0.00 66 1012.9
20260509103556 51 101 0.0 2.0 0.00 0.00 0.00 66 1012.9
20260509103104 51 101 0.0 2.0 0.00 0.00 0.00 66 1012.9
20260509102507 51 94 0.0 1.0 0.00 0.00 0.00 66 1012.9
20260509102010 51 94 0.0 2.0 0.00 0.00 0.00 66 1012.7
20260509101557 51 94 0.0 2.0 0.00 0.00 0.00 66 1012.7
20260509101058 51 94 0.0 2.0 0.00 0.00 0.00 66 1012.7
20260509100559 51 94 0.0 2.0 0.00 0.00 0.00 66 1012.8
20260509100007 51 94 0.0 1.0 0.00 0.00 0.00 66 1012.7
20260509095508 51 94 0.0 3.0 0.00 0.00 0.00 66 1012.6
20260509095011 51 94 0.0 3.0 0.00 0.00 0.00 66 1012.5
20260509094554 51 94 1.0 4.0 0.00 0.00 0.00 66 1012.5
20260509094057 51 94 1.0 4.0 0.00 0.00 0.00 66 1012.4
20260509093520 51 114 0.0 3.0 0.00 0.00 0.00 66 1012.6
20260509093100 51 114 0.0 4.0 0.00 0.00 0.00 66 1012.6
20260509092501 51 114 1.0 4.0 0.00 0.00 0.00 66 1012.7
20260509092012 51 107 1.0 3.0 0.00 0.00 0.00 66 1012.5
20260509091509 51 82 0.0 3.0 0.00 0.00 0.00 66 1012.7
20260509091056 51 82 0.0 3.0 0.00 0.00 0.00 66 1012.6
20260509090557 51 89 1.0 3.0 0.00 0.00 0.00 66 1012.7
20260509090101 51 81 0.0 3.0 0.00 0.00 0.00 66 1012.7
20260509085503 51 81 1.0 2.0 0.00 0.00 0.00 66 1012.6
20260509085006 51 81 0.0 1.0 0.00 0.00 0.00 66 1012.5
20260509084508 51 81 0.0 0.0 0.00 0.00 0.00 66 1012.5
20260509084055 51 81 0.0 3.0 0.00 0.00 0.00 66 1012.6
20260509083518 51 81 0.0 3.0 0.00 0.00 0.00 66 1012.7
20260509083101 51 94 0.0 2.0 0.00 0.00 0.00 66 1012.8
20260509082516 50 94 1.0 6.0 0.00 0.00 0.00 66 1012.9
20260509082053 50 94 1.0 6.0 0.00 0.00 0.00 66 1012.9
20260509081558 50 79 1.0 4.0 0.00 0.00 0.00 66 1013.0
20260509081003 50 138 1.0 4.0 0.00 0.00 0.00 66 1013.1
20260509080503 50 142 1.0 6.0 0.00 0.00 0.00 66 1013.0
20260509080007 50 90 1.0 6.0 0.00 0.00 0.00 66 1013.0
20260509075510 50 114 2.0 7.0 0.00 0.00 0.00 66 1012.9
20260509075055 50 88 2.0 7.0 0.00 0.00 0.00 66 1013.1
20260509074608 50 155 0.0 4.0 0.00 0.00 0.00 66 1012.9
20260509074001 50 84 0.0 2.0 0.00 0.00 0.00 66 1012.8
20260509073510 50 84 0.0 2.0 0.00 0.00 0.00 66 1012.7
20260509073051 50 84 0.0 2.0 0.00 0.00 0.00 65 1012.6
20260509072559 50 84 1.0 2.0 0.00 0.00 0.00 65 1012.6
20260509072001 50 84 0.0 3.0 0.00 0.00 0.00 65 1012.5
20260509071503 50 84 0.0 3.0 0.00 0.00 0.00 65 1012.6
20260509071008 50 84 0.0 1.0 0.00 0.00 0.00 65 1012.5
20260509070511 50 84 0.0 1.0 0.00 0.00 0.00 65 1012.5
20260509070052 50 84 0.0 2.0 0.00 0.00 0.00 65 1012.6
20260509065557 50 84 0.0 2.0 0.00 0.00 0.00 65 1012.7
20260509065017 50 84 0.0 0.0 0.00 0.00 0.00 64 1012.9
20260509064600 50 84 0.0 0.0 0.00 0.00 0.00 64 1012.7
20260509064002 49 84 0.0 0.0 0.00 0.00 0.00 64 1012.9
20260509063511 49 84 0.0 0.0 0.00 0.00 0.00 64 1013.0
20260509063010 49 84 0.0 2.0 0.00 0.00 0.00 64 1012.9
20260509062554 49 84 0.0 2.0 0.00 0.00 0.00 63 1013.1
20260509062057 49 84 0.0 3.0 0.00 0.00 0.00 63 1013.2
20260509061603 49 84 1.0 3.0 0.00 0.00 0.00 63 1013.4
20260509061004 49 114 1.0 3.0 0.00 0.00 0.00 63 1013.5
20260509060505 49 78 0.0 4.0 0.00 0.00 0.00 62 1013.4
20260509060011 49 154 0.0 4.0 0.00 0.00 0.00 62 1013.6
20260509055553 49 119 1.0 3.0 0.00 0.00 0.00 62 1013.5
20260509055100 49 90 0.0 0.0 0.00 0.00 0.00 61 1013.4
20260509054504 49 90 0.0 0.0 0.00 0.00 0.00 61 1013.5
20260509054008 49 90 0.0 0.0 0.00 0.00 0.00 61 1013.5
20260509053510 49 90 0.0 0.0 0.00 0.00 0.00 61 1013.4
20260509053055 49 90 0.0 0.0 0.00 0.00 0.00 61 1013.4
20260509052556 49 90 0.0 0.0 0.00 0.00 0.00 60 1013.4
20260509052001 49 90 0.0 0.0 0.00 0.00 0.00 60 1013.2
20260509051503 49 90 0.0 0.0 0.00 0.00 0.00 60 1013.2
20260509051008 49 90 0.0 0.0 0.00 0.00 0.00 60 1013.3
20260509050510 49 90 0.0 0.0 0.00 0.00 0.00 59 1013.3
20260509050056 49 90 0.0 0.0 0.00 0.00 0.00 59 1013.2